KK4XZ Weather Reports


Display with metric or nautical units.
time (UTC)temp
F
wind
direction
speed
MPH
gust
MPH
rain 1hr
in
rain 24hr
in
rain mn
in
humidity
%
barometer
mb
20200406155647 75 169 4.0 12.0 0.00 0.00 0.00 55 1019.7
20200406154647 74 157 5.0 12.0 0.00 0.00 0.00 55 1020.0
20200406153646 73 206 3.0 9.0 0.00 0.00 0.00 56 1020.0
20200406152645 74 229 3.0 7.0 0.00 0.00 0.00 56 1020.0
20200406151645 74 238 4.0 7.0 0.00 0.00 0.00 55 1020.0
20200406150631 74 246 2.0 10.0 0.00 0.00 0.00 55 1020.0
20200406145630 73 243 5.0 10.0 0.00 0.00 0.00 54 1020.0
20200406144616 73 264 2.0 6.0 0.00 0.00 0.00 59 1020.0
20200406143616 72 258 3.0 9.0 0.00 0.00 0.00 58 1020.0
20200406142531 71 306 4.0 9.0 0.00 0.00 0.00 61 1020.0
20200406141530 71 258 2.0 9.0 0.00 0.00 0.00 62 1020.0
20200406140529 70 257 4.0 9.0 0.00 0.00 0.00 62 1020.0
20200406135529 69 318 3.0 7.0 0.00 0.00 0.00 65 1020.0
20200406134527 68 284 3.0 9.0 0.00 0.00 0.00 67 1020.0
20200406133527 67 235 4.0 9.0 0.00 0.00 0.00 69 1020.3
20200406132526 66 295 3.0 9.0 0.00 0.00 0.00 70 1020.3
20200406131512 65 241 3.0 5.0 0.00 0.00 0.00 75 1020.3
20200406130511 63 245 2.0 3.0 0.00 0.00 0.00 81 1020.3
20200406125458 61 255 2.0 3.0 0.00 0.00 0.00 84 1020.3
20200406124414 60 236 2.0 2.0 0.00 0.00 0.00 85 1020.0
20200406123412 59 127 0.0 0.0 0.00 0.00 0.00 85 1020.0
20200406122411 58 127 0.0 0.0 0.00 0.00 0.00 85 1020.0
20200406121410 57 127 0.0 0.0 0.00 0.00 0.00 84 1020.0
20200406120409 56 127 0.0 0.0 0.00 0.00 0.00 84 1020.0
20200406115355 55 127 0.0 0.0 0.00 0.00 0.00 84 1019.6
20200406114354 54 127 0.0 0.0 0.00 0.00 0.00 83 1019.6
20200406113340 54 128 0.0 0.0 0.00 0.00 0.00 83 1019.3
20200406112339 53 128 0.0 0.0 0.00 0.00 0.00 83 1019.3
20200406111325 54 128 0.0 0.0 0.00 0.00 0.00 84 1019.3
20200406110324 54 128 0.0 0.0 0.00 0.00 0.00 84 1019.0
20200406105311 53 128 0.0 0.0 0.00 0.00 0.00 83 1019.0
20200406104310 53 128 0.0 0.0 0.00 0.00 0.00 84 1018.6
20200406103309 52 128 0.0 0.0 0.00 0.00 0.00 83 1018.6
20200406102308 52 128 0.0 0.0 0.00 0.00 0.00 84 1018.6
20200406101308 52 128 0.0 0.0 0.00 0.00 0.00 83 1018.3
20200406100307 52 128 0.0 0.0 0.00 0.00 0.00 83 1018.6
20200406095306 51 128 0.0 0.0 0.00 0.00 0.00 83 1018.3
20200406094305 52 128 0.0 0.0 0.00 0.00 0.00 83 1018.3
20200406093221 52 128 0.0 0.0 0.00 0.00 0.00 83 1018.3
20200406092221 52 128 0.0 0.0 0.00 0.00 0.00 83 1018.3
20200406091220 52 128 0.0 0.0 0.00 0.00 0.00 83 1018.3
20200406090219 52 128 0.0 0.0 0.00 0.00 0.00 83 1018.3
20200406085218 52 128 0.0 0.0 0.00 0.00 0.00 83 1018.3
20200406084121 52 128 0.0 0.0 0.00 0.00 0.00 83 1018.3
20200406083120 52 128 0.0 0.0 0.00 0.00 0.00 83 1018.3
20200406082107 53 128 0.0 0.0 0.00 0.00 0.00 83 1018.3
20200406081106 53 128 0.0 0.0 0.00 0.00 0.00 83 1018.3
20200406080053 53 128 0.0 0.0 0.00 0.00 0.00 82 1018.3
20200406075052 53 128 0.0 0.0 0.00 0.00 0.00 83 1018.3
20200406074051 53 128 0.0 0.0 0.00 0.00 0.00 82 1018.6
20200406073051 53 128 0.0 0.0 0.00 0.00 0.00 82 1018.6
20200406072050 53 128 0.0 0.0 0.00 0.00 0.00 82 1018.6
20200406071049 54 128 0.0 0.0 0.00 0.00 0.00 82 1018.6
20200406070048 53 128 0.0 0.0 0.00 0.00 0.00 82 1018.6
20200406065014 54 128 0.0 0.0 0.00 0.00 0.00 82 1018.6
20200406064014 54 128 0.0 0.0 0.00 0.00 0.00 82 1019.0
20200406063013 54 128 0.0 0.0 0.00 0.00 0.00 82 1019.0
20200406062012 54 128 0.0 0.0 0.00 0.00 0.00 82 1019.0
20200406060957 55 128 0.0 0.0 0.00 0.00 0.00 82 1019.0
20200406055956 55 128 0.0 0.0 0.00 0.00 0.00 82 1019.0
20200406054942 55 128 0.0 0.0 0.00 0.00 0.00 82 1019.0
20200406053942 55 128 0.0 0.0 0.00 0.00 0.00 81 1019.0
20200406052941 55 128 0.0 0.0 0.00 0.00 0.00 82 1019.0
20200406051928 56 128 0.0 0.0 0.00 0.00 0.00 81 1019.0
20200406050927 56 128 0.0 0.0 0.00 0.00 0.00 82 1019.0
20200406045926 56 128 0.0 0.0 0.00 0.00 0.00 82 1019.0
20200406044926 57 128 0.0 0.0 0.00 0.00 0.00 81 1019.3
20200406043912 57 128 0.0 0.0 0.00 0.00 0.00 81 1019.3
20200406042911 57 128 0.0 0.0 0.00 0.00 0.00 81 1019.3
20200406041910 57 128 0.0 0.0 0.00 0.00 0.00 78 1019.3
20200406040857 57 128 0.0 0.0 0.00 0.00 0.00 77 1019.3
20200406035816 57 128 0.0 0.0 0.00 0.00 0.00 76 1019.3
20200406034803 57 128 0.0 0.0 0.00 0.00 0.00 76 1019.3
20200406033802 58 128 0.0 2.0 0.00 0.00 0.00 76 1019.3
20200406032802 57 128 0.0 2.0 0.00 0.00 0.00 75 1019.3
20200406031801 57 128 0.0 0.0 0.00 0.00 0.00 74 1019.3
20200406030714 57 128 0.0 0.0 0.00 0.00 0.00 73 1019.3
20200406025714 57 128 0.0 0.0 0.00 0.00 0.00 72 1019.3
20200406024647 57 128 0.0 0.0 0.00 0.00 0.00 72 1019.3
20200406023646 58 128 0.0 0.0 0.00 0.00 0.00 71 1019.3
20200406022645 58 128 0.0 0.0 0.00 0.00 0.00 71 1019.3
20200406021644 58 128 0.0 0.0 0.00 0.00 0.00 71 1019.3
20200406020631 58 128 0.0 2.0 0.00 0.00 0.00 71 1019.0
20200406015630 58 128 0.0 2.0 0.00 0.00 0.00 70 1019.0
20200406014545 58 162 0.0 2.0 0.00 0.00 0.00 70 1019.0
20200406013514 58 154 0.0 2.0 0.00 0.00 0.00 70 1019.0
20200406012459 58 163 0.0 0.0 0.00 0.00 0.00 70 1019.0
20200406011445 58 161 0.0 0.0 0.00 0.00 0.00 70 1018.6
20200406010445 59 162 0.0 0.0 0.00 0.00 0.00 69 1018.6
20200406005431 59 162 0.0 0.0 0.00 0.00 0.00 69 1018.6
20200406004430 59 161 0.0 3.0 0.00 0.00 0.00 69 1018.6
20200406003429 60 162 0.0 3.0 0.00 0.00 0.00 67 1018.6
20200406002428 60 154 0.0 5.0 0.00 0.00 0.00 66 1018.3
20200406001427 60 152 2.0 5.0 0.00 0.00 0.00 66 1018.3
20200406000426 61 158 2.0 3.0 0.00 0.00 0.00 66 1018.3
20200405235426 61 163 2.0 3.0 0.00 0.00 0.00 65 1018.3
20200405234413 61 145 2.0 3.0 0.00 0.00 0.00 65 1018.3
20200405233359 61 152 2.0 5.0 0.00 0.00 0.00 64 1018.3
20200405232358 61 165 3.0 5.0 0.00 0.00 0.00 63 1018.3
20200405231357 62 166 2.0 5.0 0.00 0.00 0.00 61 1018.3
20200405230344 62 140 2.0 5.0 0.00 0.00 0.00 61 1018.3
20200405225343 63 167 2.0 3.0 0.00 0.00 0.00 59 1018.3
20200405224342 63 154 2.0 3.0 0.00 0.00 0.00 60 1017.9
20200405223341 63 168 2.0 5.0 0.00 0.00 0.00 59 1017.9
20200405222340 63 151 2.0 5.0 0.00 0.00 0.00 58 1017.9
20200405221327 63 161 2.0 5.0 0.00 0.00 0.00 57 1017.9
20200405220301 63 188 2.0 6.0 0.00 0.00 0.00 55 1018.3
20200405215300 64 154 2.0 6.0 0.00 0.00 0.00 56 1018.3
20200405214247 64 160 3.0 6.0 0.00 0.00 0.00 55 1018.3
20200405213246 65 170 2.0 6.0 0.00 0.00 0.00 54 1018.3
20200405212245 65 213 2.0 7.0 0.00 0.00 0.00 53 1018.3
20200405211244 66 144 2.0 7.0 0.00 0.00 0.00 52 1018.3
20200405210231 66 155 3.0 7.0 0.00 0.00 0.00 51 1018.3
20200405205230 66 174 3.0 7.0 0.00 0.00 0.00 49 1018.3
20200405204230 66 152 3.0 7.0 0.00 0.00 0.00 49 1018.3
20200405203229 67 162 2.0 6.0 0.00 0.00 0.00 47 1018.3
20200405202228 67 178 3.0 9.0 0.00 0.00 0.00 47 1018.3
20200405201214 68 174 3.0 9.0 0.00 0.00 0.00 46 1018.3
20200405200213 68 163 2.0 7.0 0.00 0.00 0.00 49 1018.3
20200405195159 68 144 2.0 7.0 0.00 0.00 0.00 50 1018.3
20200405194146 67 147 2.0 7.0 0.00 0.00 0.00 52 1018.6
20200405193119 68 188 2.0 7.0 0.00 0.00 0.00 51 1018.6
20200405192106 68 153 3.0 7.0 0.00 0.00 0.00 50 1018.6
20200405191031 69 158 3.0 7.0 0.00 0.00 0.00 47 1018.6
20200405190030 70 178 3.0 7.0 0.00 0.00 0.00 46 1018.6
20200405185030 69 161 3.0 9.0 0.00 0.00 0.00 45 1019.0
20200405184016 69 205 3.0 9.0 0.00 0.00 0.00 45 1019.0
20200405183015 69 185 2.0 7.0 0.00 0.00 0.00 46 1019.0
20200405182001 68 166 2.0 7.0 0.00 0.00 0.00 46 1019.0
20200405181000 68 171 3.0 9.0 0.00 0.00 0.00 46 1019.0
20200405175947 68 166 3.0 9.0 0.00 0.00 0.00 50 1019.0
20200405174946 69 211 2.0 9.0 0.00 0.00 0.00 50 1019.0
20200405173945 70 153 3.0 7.0 0.00 0.00 0.00 48 1019.3
20200405172932 70 162 2.0 10.0 0.00 0.00 0.00 48 1019.3
20200405171931 70 143 2.0 9.0 0.00 0.00 0.00 47 1019.3
20200405170930 70 222 3.0 10.0 0.00 0.00 0.00 48 1019.3
20200405165930 69 199 2.0 9.0 0.00 0.00 0.00 49 1019.3
20200405164845 69 166 3.0 9.0 0.00 0.00 0.00 48 1019.3
20200405163844 70 169 3.0 7.0 0.00 0.00 0.00 47 1019.7
20200405162830 70 168 2.0 7.0 0.00 0.00 0.00 46 1020.0
20200405161830 70 165 4.0 7.0 0.00 0.00 0.00 45 1020.0
20200405160829 71 150 3.0 6.0 0.00 0.00 0.00 45 1020.0